,,Stat6,,Stat2,,Stat8,,Stat9,,Stat10,,Wind1,,Wind1,
time,status,PA1M_AVG,status,PR1M_SUM,status,RH1M_AVG,status,SR1M_AVG,status,TA1M_AVG,status,W1dAve1m,status,W1sAve1m,
2004-02-23, 00:00:01,VALID,918.294,VALID,0,VALID,100,VALID,-0.0169808,VALID,19.0415,VALID,70,VALID,0.846912,
2004-02-23, 00:01:01,VALID,918.287,VALID,0,VALID,100,VALID,0,VALID,19.0581,VALID,70,VALID,0.839026,
2004-02-23, 00:02:00,VALID,918.275,VALID,0,VALID,100,VALID,0.0169808,VALID,19.0609,VALID,83,VALID,0.645633,
2004-02-23, 00:03:00,VALID,918.257,VALID,0,VALID,100,VALID,0,VALID,19.0681,VALID,75,VALID,0.602289,
2004-02-23, 00:04:01,VALID,918.254,VALID,0,VALID,100,VALID,0,VALID,19.0713,VALID,60,VALID,0.690589,
2004-02-23, 00:05:01,VALID,918.237,VALID,0,VALID,100,VALID,0,VALID,19.0678,VALID,73,VALID,0.704578,
2004-02-23, 00:06:01,VALID,918.236,VALID,0,VALID,100,VALID,0,VALID,19.0842,VALID,75,VALID,0.662642,
2004-02-23, 00:07:00,VALID,918.232,VALID,0,VALID,100,VALID,0,VALID,19.0904,VALID,98,VALID,0.672805,
2004-02-23, 00:08:00,VALID,918.24,VALID,0,VALID,100,VALID,0,VALID,19.0867,VALID,102,VALID,0.830503,
2004-02-23, 00:09:00,VALID,918.24,VALID,0,VALID,100,VALID,0,VALID,19.1093,VALID,95,VALID,0.785429,
2004-02-23, 00:10:01,VALID,918.263,VALID,0,VALID,100,VALID,0.0169808,VALID,19.119,VALID,102,VALID,0.759266,
2004-02-23, 00:11:00,VALID,918.273,VALID,0,VALID,100,VALID,0,VALID,19.1225,VALID,99,VALID,0.716025,
2004-02-23, 00:12:00,VALID,918.268,VALID,0,VALID,99.9921,VALID,0.0169808,VALID,19.1287,VALID,98,VALID,0.792696,
2004-02-23, 00:13:01,VALID,918.276,VALID,0,VALID,99.9774,VALID,0,VALID,19.1384,VALID,99,VALID,0.741461,
2004-02-23, 00:14:00,VALID,918.269,VALID,0,VALID,99.9468,VALID,0,VALID,19.1481,VALID,99,VALID,0.68936,
2004-02-23, 00:15:00,VALID,918.258,VALID,0,VALID,99.8896,VALID,0.0509425,VALID,19.1508,VALID,102,VALID,0.747275,
2004-02-23, 00:16:00,VALID,918.248,VALID,0,VALID,99.868,VALID,0.0339617,VALID,19.1644,VALID,106,VALID,0.84096,
2004-02-23, 00:17:00,VALID,918.242,VALID,0,VALID,99.807,VALID,0.0339617,VALID,19.1637,VALID,107,VALID,0.824855,
2004-02-23, 00:18:01,VALID,918.223,VALID,0,VALID,99.7485,VALID,0,VALID,19.1709,VALID,103,VALID,0.720274,
2004-02-23, 00:19:00,VALID,918.203,VALID,0,VALID,99.7154,VALID,0.0169808,VALID,19.164,VALID,100,VALID,0.566051,
2004-02-23, 00:20:00,VALID,918.207,VALID,0,VALID,99.6531,VALID,0.0169808,VALID,19.1806,VALID,100,VALID,0.517154,
2004-02-23, 00:21:00,VALID,918.191,VALID,0,VALID,99.6086,VALID,0.0169808,VALID,19.1736,VALID,100,VALID,0.666243,
2004-02-23, 00:22:00,VALID,918.2,VALID,0,VALID,99.5603,VALID,0,VALID,19.1677,VALID,109,VALID,1.06402,
2004-02-23, 00:23:00,VALID,918.19,VALID,0,VALID,99.5501,VALID,0.0339617,VALID,19.1543,VALID,110,VALID,1.12944,
2004-02-23, 00:24:00,VALID,918.213,VALID,0,VALID,99.5145,VALID,0.0169808,VALID,19.1637,VALID,101,VALID,1.0292,
2004-02-23, 00:25:01,VALID,918.221,VALID,0,VALID,99.4395,VALID,0,VALID,19.1863,VALID,90,VALID,0.818444,
2004-02-23, 00:26:01,VALID,918.219,VALID,0,VALID,99.3301,VALID,0.0509425,VALID,19.1766,VALID,87,VALID,1.07908,
2004-02-23, 00:27:00,VALID,918.216,VALID,0,VALID,99.264,VALID,0.0509425,VALID,19.1739,VALID,86,VALID,0.765053,
2004-02-23, 00:28:01,VALID,918.204,VALID,0,VALID,99.278,VALID,0.0509425,VALID,19.1637,VALID,105,VALID,0.818824,
2004-02-23, 00:29:01,VALID,918.184,VALID,0,VALID,99.2437,VALID,-0.0169808,VALID,19.158,VALID,112,VALID,1.13354,
2004-02-23, 00:30:01,VALID,918.164,VALID,0,VALID,99.2945,VALID,-0.0679233,VALID,19.1592,VALID,120,VALID,1.3402,
2004-02-23, 00:31:00,VALID,918.142,VALID,0,VALID,99.2983,VALID,-0.0849042,VALID,19.1659,VALID,116,VALID,1.38565,
2004-02-23, 00:32:00,VALID,918.139,VALID,0,VALID,99.2424,VALID,-0.0509425,VALID,19.1652,VALID,126,VALID,1.13027,
2004-02-23, 00:33:00,VALID,918.137,VALID,0,VALID,99.1572,VALID,-0.0679233,VALID,19.1488,VALID,126,VALID,0.981076,
2004-02-23, 00:34:01,VALID,918.131,VALID,0,VALID,99.133,VALID,-0.101885,VALID,19.1398,VALID,120,VALID,1.09866,
2004-02-23, 00:35:01,VALID,918.125,VALID,0,VALID,99.1432,VALID,-0.0849042,VALID,19.1271,VALID,106,VALID,1.23586,
2004-02-23, 00:36:00,VALID,918.111,VALID,0,VALID,99.1699,VALID,-0.0849042,VALID,19.1041,VALID,108,VALID,1.11452,
2004-02-23, 00:37:00,VALID,918.109,VALID,0,VALID,99.2386,VALID,-0.101885,VALID,19.0983,VALID,121,VALID,1.30682,
2004-02-23, 00:38:00,VALID,918.077,VALID,0,VALID,99.3581,VALID,-0.101885,VALID,19.0852,VALID,112,VALID,1.34629,
2004-02-23, 00:39:00,VALID,918.062,VALID,0,VALID,99.484,VALID,-0.101885,VALID,19.0655,VALID,115,VALID,1.34566,
2004-02-23, 00:40:01,VALID,918.044,VALID,0,VALID,99.498,VALID,-0.101885,VALID,19.0655,VALID,126,VALID,1.37997,
2004-02-23, 00:41:00,VALID,918.032,VALID,0,VALID,99.5641,VALID,-0.101885,VALID,19.0589,VALID,127,VALID,1.33092,
2004-02-23, 00:42:00,VALID,918.015,VALID,0,VALID,99.6035,VALID,-0.101885,VALID,19.0591,VALID,126,VALID,1.07213,
2004-02-23, 00:43:00,VALID,918.01,VALID,0,VALID,99.6124,VALID,-0.118866,VALID,19.0494,VALID,131,VALID,1.13136,
2004-02-23, 00:44:00,VALID,918,VALID,0,VALID,99.662,VALID,-0.101885,VALID,19.0494,VALID,126,VALID,0.963867,
2004-02-23, 00:45:00,VALID,917.992,VALID,0,VALID,99.615,VALID,-0.0849042,VALID,19.0363,VALID,119,VALID,0.924538,
2004-02-23, 00:46:01,VALID,917.975,VALID,0,VALID,99.6162,VALID,-0.0679233,VALID,19.0169,VALID,117,VALID,1.1066,
2004-02-23, 00:47:00,VALID,917.969,VALID,0,VALID,99.6366,VALID,-0.0849042,VALID,18.9975,VALID,118,VALID,1.01104,
2004-02-23, 00:48:01,VALID,917.952,VALID,0,VALID,99.6544,VALID,-0.101885,VALID,18.9885,VALID,122,VALID,1.18378,
2004-02-23, 00:49:00,VALID,917.946,VALID,0,VALID,99.676,VALID,-0.0849042,VALID,18.9722,VALID,122,VALID,1.21057,
2004-02-23, 00:50:01,VALID,917.932,VALID,0,VALID,99.7002,VALID,-0.0509425,VALID,18.9687,VALID,111,VALID,1.05171,
2004-02-23, 00:51:00,VALID,917.924,VALID,0,VALID,99.6836,VALID,-0.0849042,VALID,18.9622,VALID,113,VALID,1.10774,
2004-02-23, 00:52:00,VALID,917.924,VALID,0,VALID,99.7383,VALID,-0.101885,VALID,18.9719,VALID,120,VALID,1.29314,
2004-02-23, 00:53:00,VALID,917.915,VALID,0,VALID,99.7459,VALID,-0.0849042,VALID,18.9784,VALID,119,VALID,1.06752,
2004-02-23, 00:54:00,VALID,917.907,VALID,0,VALID,99.718,VALID,-0.101885,VALID,18.9682,VALID,114,VALID,1.26897,
2004-02-23, 00:55:00,VALID,917.91,VALID,0,VALID,99.6836,VALID,-0.101885,VALID,18.9853,VALID,118,VALID,0.928013,
2004-02-23, 00:56:01,VALID,917.899,VALID,0,VALID,99.7332,VALID,-0.101885,VALID,18.9754,VALID,119,VALID,1.15394,
2004-02-23, 00:57:01,VALID,917.886,VALID,0,VALID,99.7014,VALID,-0.0679233,VALID,18.9781,VALID,92,VALID,0.952363,
2004-02-23, 00:58:00,VALID,917.884,VALID,0,VALID,99.7141,VALID,-0.0849042,VALID,18.965,VALID,88,VALID,0.826982,
2004-02-23, 00:59:00,VALID,917.878,VALID,0,VALID,99.6938,VALID,-0.0679233,VALID,18.9684,VALID,94,VALID,0.784598,
2004-02-23, 01:00:00,VALID,917.879,VALID,0,VALID,99.718,VALID,-0.101885,VALID,18.9523,VALID,114,VALID,1.02214,
2004-02-23, 01:01:00,VALID,917.863,VALID,0,VALID,99.7332,VALID,-0.0849042,VALID,18.9588,VALID,110,VALID,0.996271,
2004-02-23, 01:02:00,VALID,917.856,VALID,0,VALID,99.7294,VALID,-0.0339617,VALID,18.9781,VALID,124,VALID,0.775112,
2004-02-23, 01:03:00,VALID,917.84,VALID,0,VALID,99.6696,VALID,-0.0679233,VALID,18.9851,VALID,122,VALID,0.823828,
2004-02-23, 01:04:01,VALID,917.836,VALID,0,VALID,99.6035,VALID,-0.101885,VALID,18.9853,VALID,129,VALID,0.841751,
2004-02-23, 01:05:00,VALID,917.828,VALID,0,VALID,99.5463,VALID,-0.101885,VALID,18.9818,VALID,133,VALID,0.977471,
2004-02-23, 01:06:00,VALID,917.815,VALID,0,VALID,99.5056,VALID,-0.0849042,VALID,18.9818,VALID,132,VALID,1.11771,
2004-02-23, 01:07:00,VALID,917.816,VALID,0,VALID,99.4611,VALID,-0.101885,VALID,18.9952,VALID,133,VALID,0.99907,
2004-02-23, 01:08:00,VALID,917.79,VALID,0,VALID,99.4433,VALID,-0.101885,VALID,18.9821,VALID,133,VALID,1.72885,
2004-02-23, 01:09:00,VALID,917.785,VALID,0,VALID,99.3683,VALID,-0.118866,VALID,18.9948,VALID,137,VALID,1.36105,
2004-02-23, 01:10:00,VALID,917.771,VALID,0,VALID,99.3136,VALID,-0.101885,VALID,18.9918,VALID,124,VALID,1.15996,
2004-02-23, 01:11:01,VALID,917.757,VALID,0,VALID,99.339,VALID,-0.0849042,VALID,18.9878,VALID,129,VALID,1.35483,
2004-02-23, 01:12:01,VALID,917.742,VALID,0,VALID,99.3772,VALID,-0.101885,VALID,18.9816,VALID,142,VALID,1.24818,
2004-02-23, 01:13:00,VALID,917.727,VALID,0,VALID,99.3962,VALID,-0.0849042,VALID,18.9751,VALID,129,VALID,1.15699,
2004-02-23, 01:14:01,VALID,917.729,VALID,0,VALID,99.4471,VALID,-0.0679233,VALID,18.9689,VALID,126,VALID,1.27344,
2004-02-23, 01:15:01,VALID,917.705,VALID,0,VALID,99.4573,VALID,-0.101885,VALID,18.9463,VALID,123,VALID,1.07955,
2004-02-23, 01:16:01,VALID,917.716,VALID,0,VALID,99.5183,VALID,-0.101885,VALID,18.9399,VALID,120,VALID,1.40892,
2004-02-23, 01:17:01,VALID,917.701,VALID,0,VALID,99.517,VALID,-0.0849042,VALID,18.9336,VALID,114,VALID,0.973958,
2004-02-23, 01:18:00,VALID,917.698,VALID,0,VALID,99.531,VALID,-0.118866,VALID,18.9272,VALID,120,VALID,1.20967,
2004-02-23, 01:19:00,VALID,917.681,VALID,0,VALID,99.5298,VALID,-0.101885,VALID,18.9173,VALID,123,VALID,1.30309,
2004-02-23, 01:20:00,VALID,917.68,VALID,0,VALID,99.5005,VALID,-0.118866,VALID,18.914,VALID,124,VALID,1.38554,
2004-02-23, 01:21:00,VALID,917.672,VALID,0,VALID,99.4408,VALID,-0.118866,VALID,18.9304,VALID,112,VALID,1.05489,
2004-02-23, 01:22:00,VALID,917.665,VALID,0,VALID,99.3136,VALID,-0.101885,VALID,18.9267,VALID,94,VALID,0.796303,
2004-02-23, 01:23:01,VALID,917.665,VALID,0,VALID,99.2462,VALID,-0.101885,VALID,18.9336,VALID,100,VALID,0.75093,
2004-02-23, 01:24:00,VALID,917.666,VALID,0,VALID,99.1763,VALID,-0.101885,VALID,18.914,VALID,101,VALID,0.581424,
2004-02-23, 01:25:01,VALID,917.643,VALID,0,VALID,99.1114,VALID,-0.101885,VALID,18.9073,VALID,114,VALID,0.691497,
2004-02-23, 01:26:01,VALID,917.643,VALID,0,VALID,99.0122,VALID,-0.0849042,VALID,18.9173,VALID,108,VALID,0.453307,
2004-02-23, 01:27:01,VALID,917.649,VALID,0,VALID,98.9601,VALID,0,VALID,18.9096,VALID,98,VALID,0.266006,
2004-02-23, 01:28:01,VALID,917.639,VALID,0,VALID,98.9703,VALID,0,VALID,18.8865,VALID,101,VALID,0.414634,
2004-02-23, 01:29:00,VALID,917.637,VALID,0,VALID,98.9728,VALID,-0.0509425,VALID,18.8808,VALID,98,VALID,0.417411,
2004-02-23, 01:30:01,VALID,917.629,VALID,0,VALID,98.9919,VALID,-0.101885,VALID,18.8914,VALID,65,VALID,0.497142,
2004-02-23, 01:31:01,VALID,917.625,VALID,0,VALID,98.9512,VALID,-0.101885,VALID,18.8884,VALID,66,VALID,0.441493,
2004-02-23, 01:32:01,VALID,917.604,VALID,0,VALID,98.9563,VALID,-0.101885,VALID,18.8852,VALID,65,VALID,0.706364,
2004-02-23, 01:33:01,VALID,917.591,VALID,0,VALID,98.9601,VALID,-0.101885,VALID,18.8721,VALID,54,VALID,0.763889,
2004-02-23, 01:34:01,VALID,917.595,VALID,0,VALID,99.0008,VALID,-0.118866,VALID,18.882,VALID,62,VALID,0.825284,
2004-02-23, 01:35:01,VALID,917.581,VALID,0,VALID,99.0109,VALID,-0.101885,VALID,18.882,VALID,79,VALID,0.747024,
2004-02-23, 01:36:01,VALID,917.572,VALID,0,VALID,99.0923,VALID,-0.101885,VALID,18.8755,VALID,74,VALID,0.793636,
2004-02-23, 01:37:01,VALID,917.56,VALID,0,VALID,99.1381,VALID,-0.101885,VALID,18.8787,VALID,69,VALID,0.658727,
2004-02-23, 01:38:00,VALID,917.55,VALID,0,VALID,99.1063,VALID,-0.101885,VALID,18.8723,VALID,68,VALID,0.78218,
2004-02-23, 01:39:01,VALID,917.53,VALID,0,VALID,99.1597,VALID,-0.118866,VALID,18.8561,VALID,49,VALID,0.722202,
2004-02-23, 01:40:01,VALID,917.513,VALID,0,VALID,99.2411,VALID,-0.101885,VALID,18.8561,VALID,42,VALID,0.752046,
2004-02-23, 01:41:01,VALID,917.496,VALID,0,VALID,99.2602,VALID,-0.101885,VALID,18.8333,VALID,49,VALID,0.81392,
2004-02-23, 01:42:01,VALID,917.472,VALID,0,VALID,99.3365,VALID,-0.118866,VALID,18.8335,VALID,51,VALID,0.819382,
2004-02-23, 01:43:01,VALID,917.458,VALID,0,VALID,99.4191,VALID,-0.101885,VALID,18.8368,VALID,62,VALID,0.97309,
2004-02-23, 01:44:01,VALID,917.439,VALID,0,VALID,99.5094,VALID,-0.101885,VALID,18.84,VALID,68,VALID,1.01042,
2004-02-23, 01:45:01,VALID,917.413,VALID,0,VALID,99.5997,VALID,-0.0849042,VALID,18.8532,VALID,73,VALID,0.875,
2004-02-23, 01:46:01,VALID,917.394,VALID,0,VALID,99.5883,VALID,-0.0849042,VALID,18.8532,VALID,73,VALID,0.736607,
2004-02-23, 01:47:01,VALID,917.374,VALID,0,VALID,99.5717,VALID,-0.118866,VALID,18.8499,VALID,98,VALID,0.786222,
2004-02-23, 01:48:01,VALID,917.365,VALID,0,VALID,99.6302,VALID,-0.118866,VALID,18.8331,VALID,104,VALID,0.932465,
2004-02-23, 01:49:01,VALID,917.357,VALID,0,VALID,99.6773,VALID,-0.101885,VALID,18.8465,VALID,84,VALID,0.954723,
2004-02-23, 01:50:01,VALID,917.34,VALID,0,VALID,99.6595,VALID,-0.101885,VALID,18.8432,VALID,95,VALID,0.92081,
2004-02-23, 01:51:01,VALID,917.323,VALID,0,VALID,99.751,VALID,-0.101885,VALID,18.8561,VALID,100,VALID,1.08873,
2004-02-23, 01:52:01,VALID,917.319,VALID,0,VALID,99.718,VALID,-0.101885,VALID,18.8398,VALID,84,VALID,0.980646,
2004-02-23, 01:53:01,VALID,917.306,VALID,0,VALID,99.7625,VALID,-0.118866,VALID,18.8335,VALID,70,VALID,0.673971,
2004-02-23, 01:54:01,VALID,917.301,VALID,0,VALID,99.7688,VALID,-0.0849042,VALID,18.8402,VALID,82,VALID,0.844105,
2004-02-23, 01:55:01,VALID,917.284,VALID,0,VALID,99.8095,VALID,-0.101885,VALID,18.8269,VALID,91,VALID,0.779474,
2004-02-23, 01:56:01,VALID,917.286,VALID,0,VALID,99.8451,VALID,-0.101885,VALID,18.8331,VALID,74,VALID,0.818051,
2004-02-23, 01:57:01,VALID,917.281,VALID,0,VALID,99.9023,VALID,-0.101885,VALID,18.8365,VALID,100,VALID,0.852257,
2004-02-23, 01:58:01,VALID,917.273,VALID,0,VALID,99.8871,VALID,-0.0849042,VALID,18.84,VALID,95,VALID,0.817336,
2004-02-23, 01:59:01,VALID,917.282,VALID,0,VALID,99.9036,VALID,-0.0679233,VALID,18.843,VALID,93,VALID,0.7117,
2004-02-23, 02:00:01,VALID,917.284,VALID,0,VALID,99.9062,VALID,-0.0679233,VALID,18.8298,VALID,105,VALID,1.02071,
2004-02-23, 02:01:01,VALID,917.281,VALID,0,VALID,99.9647,VALID,-0.0849042,VALID,18.8365,VALID,117,VALID,1.29197,
2004-02-23, 02:02:01,VALID,917.273,VALID,0,VALID,99.9634,VALID,-0.0679233,VALID,18.8462,VALID,122,VALID,1.44407,
2004-02-23, 02:03:01,VALID,917.262,VALID,0,VALID,99.9519,VALID,-0.0849042,VALID,18.8462,VALID,116,VALID,1.38205,
2004-02-23, 02:04:01,VALID,917.261,VALID,0,VALID,99.9392,VALID,-0.0679233,VALID,18.8492,VALID,113,VALID,1.44727,
2004-02-23, 02:05:01,VALID,917.257,VALID,0,VALID,99.9176,VALID,-0.0849042,VALID,18.8266,VALID,114,VALID,1.63281,
2004-02-23, 02:06:01,VALID,917.248,VALID,0,VALID,99.8896,VALID,-0.0849042,VALID,18.8204,VALID,110,VALID,1.22847,
2004-02-23, 02:07:01,VALID,917.238,VALID,0,VALID,99.8655,VALID,-0.0339617,VALID,18.8167,VALID,104,VALID,1.15816,
2004-02-23, 02:08:01,VALID,917.226,VALID,0,VALID,99.8566,VALID,-0.0339617,VALID,18.8068,VALID,91,VALID,1.02907,
2004-02-23, 02:09:00,VALID,917.202,VALID,0,VALID,99.8426,VALID,-0.0679233,VALID,18.7909,VALID,78,VALID,0.706143,
2004-02-23, 02:10:00,VALID,917.187,VALID,0,VALID,99.84,VALID,-0.101885,VALID,18.7879,VALID,98,VALID,0.976563,
2004-02-23, 02:11:00,VALID,917.17,VALID,0,VALID,99.8553,VALID,-0.0679233,VALID,18.7879,VALID,109,VALID,1.3109,
2004-02-23, 02:12:00,VALID,917.163,VALID,0,VALID,99.7854,VALID,-0.0849042,VALID,18.807,VALID,106,VALID,1.09375,
2004-02-23, 02:13:00,VALID,917.143,VALID,0,VALID,99.7027,VALID,-0.0849042,VALID,18.8105,VALID,114,VALID,1.39618,
2004-02-23, 02:14:00,VALID,917.166,VALID,0,VALID,99.5972,VALID,-0.0849042,VALID,18.8365,VALID,108,VALID,1.07752,
2004-02-23, 02:15:00,VALID,917.165,VALID,0,VALID,99.5348,VALID,-0.0679233,VALID,18.8691,VALID,109,VALID,1.36756,
2004-02-23, 02:16:00,VALID,917.164,VALID,0,VALID,99.4853,VALID,-0.0679233,VALID,18.8882,VALID,119,VALID,1.18211,
2004-02-23, 02:17:00,VALID,917.168,VALID,0,VALID,99.409,VALID,-0.0679233,VALID,18.8942,VALID,106,VALID,1.36886,
2004-02-23, 02:18:00,VALID,917.175,VALID,0,VALID,99.3861,VALID,-0.101885,VALID,18.9108,VALID,94,VALID,1.30923,
2004-02-23, 02:19:00,VALID,917.188,VALID,0,VALID,99.2704,VALID,-0.101885,VALID,18.9006,VALID,68,VALID,0.706473,
2004-02-23, 02:20:00,VALID,917.17,VALID,0,VALID,99.2208,VALID,-0.101885,VALID,18.9041,VALID,83,VALID,0.95585,
2004-02-23, 02:21:00,VALID,917.174,VALID,0,VALID,99.1941,VALID,-0.101885,VALID,18.8947,VALID,78,VALID,0.549479,
2004-02-23, 02:22:00,VALID,917.167,VALID,0,VALID,99.189,VALID,-0.101885,VALID,18.9009,VALID,84,VALID,0.824673,
2004-02-23, 02:23:00,VALID,917.151,VALID,0,VALID,99.2068,VALID,-0.0849042,VALID,18.8912,VALID,75,VALID,0.924782,
2004-02-23, 02:24:00,VALID,917.141,VALID,0,VALID,99.2017,VALID,-0.0679233,VALID,18.9011,VALID,66,VALID,0.761719,
2004-02-23, 02:25:00,VALID,917.135,VALID,0,VALID,99.208,VALID,-0.0849042,VALID,18.9046,VALID,111,VALID,1.35938,
2004-02-23, 02:26:00,VALID,917.14,VALID,0,VALID,99.2284,VALID,-0.0849042,VALID,18.9041,VALID,112,VALID,1.35565,
2004-02-23, 02:27:00,VALID,917.141,VALID,0,VALID,99.2411,VALID,-0.101885,VALID,18.9078,VALID,105,VALID,1.26453,
2004-02-23, 02:28:00,VALID,917.145,VALID,0,VALID,99.2335,VALID,-0.101885,VALID,18.9043,VALID,94,VALID,1.25898,
2004-02-23, 02:29:00,VALID,917.135,VALID,0,VALID,99.2131,VALID,-0.0849042,VALID,18.911,VALID,114,VALID,1.24312,
2004-02-23, 02:30:00,VALID,917.142,VALID,0,VALID,99.2309,VALID,-0.0509425,VALID,18.8942,VALID,125,VALID,1.36833,
2004-02-23, 02:31:00,VALID,917.126,VALID,0,VALID,99.2246,VALID,-0.101885,VALID,18.8979,VALID,124,VALID,1.52744,
2004-02-23, 02:32:00,VALID,917.118,VALID,0,VALID,99.222,VALID,-0.101885,VALID,18.9078,VALID,128,VALID,1.53404,
2004-02-23, 02:33:00,VALID,917.114,VALID,0,VALID,99.161,VALID,-0.101885,VALID,18.9108,VALID,129,VALID,1.3391,
2004-02-23, 02:34:00,VALID,917.091,VALID,0,VALID,99.0898,VALID,-0.101885,VALID,18.9076,VALID,121,VALID,1.27028,
2004-02-23, 02:35:00,VALID,917.076,VALID,0,VALID,99.0249,VALID,-0.101885,VALID,18.9108,VALID,122,VALID,1.2766,
2004-02-23, 02:36:00,VALID,917.064,VALID,0,VALID,98.9588,VALID,-0.0679233,VALID,18.9073,VALID,121,VALID,1.14335,
2004-02-23, 02:37:00,VALID,917.05,VALID,0,VALID,98.9258,VALID,-0.101885,VALID,18.914,VALID,117,VALID,1.15044,
2004-02-23, 02:38:00,VALID,917.03,VALID,0,VALID,98.9067,VALID,-0.0849042,VALID,18.9073,VALID,122,VALID,1.25908,
2004-02-23, 02:39:00,VALID,917.01,VALID,0,VALID,98.8723,VALID,-0.101885,VALID,18.9073,VALID,124,VALID,1.27083,
2004-02-23, 02:40:00,VALID,916.995,VALID,0,VALID,98.8609,VALID,-0.101885,VALID,18.9076,VALID,118,VALID,1.15681,
2004-02-23, 02:41:00,VALID,916.98,VALID,0,VALID,98.838,VALID,-0.101885,VALID,18.9147,VALID,118,VALID,1.1881,
2004-02-23, 02:42:00,VALID,916.967,VALID,0,VALID,98.8253,VALID,-0.101885,VALID,18.8947,VALID,106,VALID,1.17543,
2004-02-23, 02:43:00,VALID,916.949,VALID,0,VALID,98.8545,VALID,-0.118866,VALID,18.8884,VALID,110,VALID,1.08491,
2004-02-23, 02:44:00,VALID,916.936,VALID,0,VALID,98.866,VALID,-0.0849042,VALID,18.8917,VALID,106,VALID,0.707126,
2004-02-23, 02:45:00,VALID,916.932,VALID,0,VALID,98.8812,VALID,0,VALID,18.8776,VALID,82,VALID,0.755382,
2004-02-23, 02:46:00,VALID,916.916,VALID,0,VALID,98.8622,VALID,0,VALID,18.858,VALID,112,VALID,0.848958,
2004-02-23, 02:47:00,VALID,916.91,VALID,0,VALID,98.8774,VALID,0,VALID,18.8351,VALID,121,VALID,0.792773,
2004-02-23, 02:48:00,VALID,916.896,VALID,0,VALID,98.9041,VALID,0,VALID,18.8383,VALID,121,VALID,0.858994,
2004-02-23, 02:49:00,VALID,916.892,VALID,0,VALID,98.8927,VALID,0.0169808,VALID,18.8321,VALID,110,VALID,1.02477,
2004-02-23, 02:50:00,VALID,916.876,VALID,0,VALID,98.8482,VALID,0.0169808,VALID,18.8383,VALID,99,VALID,0.560023,
2004-02-23, 02:51:00,VALID,916.876,VALID,0,VALID,98.7197,VALID,0.0169808,VALID,18.8448,VALID,104,VALID,0.852865,
2004-02-23, 02:52:00,VALID,916.867,VALID,0,VALID,98.6346,VALID,0.0169808,VALID,18.8483,VALID,97,VALID,0.799538,
2004-02-23, 02:53:00,VALID,916.86,VALID,0,VALID,98.4972,VALID,0.0169808,VALID,18.8485,VALID,94,VALID,0.625363,
2004-02-23, 02:54:00,VALID,916.855,VALID,0,VALID,98.4324,VALID,0,VALID,18.855,VALID,82,VALID,0.597396,
2004-02-23, 02:55:00,VALID,916.856,VALID,0,VALID,98.3561,VALID,0,VALID,18.855,VALID,82,VALID,0.584413,
2004-02-23, 02:56:00,VALID,916.853,VALID,0,VALID,98.3141,VALID,0,VALID,18.8612,VALID,90,VALID,0.549132,
2004-02-23, 02:57:00,VALID,916.847,VALID,0,VALID,98.3052,VALID,0.0169808,VALID,18.858,VALID,90,VALID,0.387355,
2004-02-23, 02:58:00,VALID,916.857,VALID,0,VALID,98.3167,VALID,0,VALID,18.851,VALID,90,VALID,0.0964134,
2004-02-23, 02:59:00,VALID,916.838,VALID,0,VALID,98.3472,VALID,0.0169808,VALID,18.8542,VALID,90,VALID,0,
2004-02-23, 03:00:00,VALID,916.831,VALID,0,VALID,98.3739,VALID,0.0509425,VALID,18.8374,VALID,90,VALID,0.112282,
2004-02-23, 03:01:00,VALID,916.815,VALID,0,VALID,98.4044,VALID,0.0849042,VALID,18.8284,VALID,66,VALID,0.304688,
2004-02-23, 03:02:00,VALID,916.805,VALID,0,VALID,98.3866,VALID,0.0509425,VALID,18.8123,VALID,40,VALID,0.565848,
2004-02-23, 03:03:00,VALID,916.813,VALID,0,VALID,98.487,VALID,0.0679233,VALID,18.786,VALID,26,VALID,0.543968,
2004-02-23, 03:04:00,VALID,916.806,VALID,0,VALID,98.5176,VALID,0.0849042,VALID,18.7631,VALID,25,VALID,0.475632,
2004-02-23, 03:05:00,VALID,916.802,VALID,0,VALID,98.5494,VALID,0.101885,VALID,18.7378,VALID,24,VALID,0.374645,
2004-02-23, 03:06:00,VALID,916.806,VALID,0,VALID,98.6498,VALID,0.0849042,VALID,18.7283,VALID,25,VALID,0.402435,
2004-02-23, 03:07:00,VALID,916.798,VALID,0,VALID,98.7108,VALID,0.0509425,VALID,18.7159,VALID,25,VALID,0.439546,
2004-02-23, 03:08:00,VALID,916.797,VALID,0,VALID,98.7604,VALID,0.0339617,VALID,18.6827,VALID,25,VALID,0.563867,
2004-02-23, 03:09:00,VALID,916.789,VALID,0,VALID,98.8507,VALID,0.0679233,VALID,18.6665,VALID,40,VALID,0.796494,
2004-02-23, 03:10:00,VALID,916.776,VALID,0,VALID,98.9385,VALID,0.0679233,VALID,18.6633,VALID,44,VALID,0.863948,
2004-02-23, 03:11:00,VALID,916.772,VALID,0,VALID,98.9614,VALID,0.0509425,VALID,18.6705,VALID,47,VALID,0.836128,
2004-02-23, 03:12:00,VALID,916.768,VALID,0,VALID,98.9385,VALID,0.0849042,VALID,18.6439,VALID,48,VALID,0.79154,
2004-02-23, 03:13:00,VALID,916.76,VALID,0,VALID,98.9308,VALID,0.101885,VALID,18.6243,VALID,48,VALID,0.510356,
2004-02-23, 03:14:00,VALID,916.739,VALID,0,VALID,98.9461,VALID,0.0679233,VALID,18.6117,VALID,48,VALID,0.653472,
2004-02-23, 03:15:00,VALID,916.743,VALID,0,VALID,98.9728,VALID,0,VALID,18.6195,VALID,45,VALID,0.866122,
2004-02-23, 03:16:00,VALID,916.731,VALID,0,VALID,99.0135,VALID,0,VALID,18.6138,VALID,40,VALID,0.78125,
2004-02-23, 03:17:00,VALID,916.707,VALID,0,VALID,99.0707,VALID,-0.0169808,VALID,18.5875,VALID,43,VALID,0.755729,
2004-02-23, 03:18:00,VALID,916.698,VALID,0,VALID,99.1063,VALID,0,VALID,18.584,VALID,47,VALID,0.893949,
2004-02-23, 03:19:00,VALID,916.687,VALID,0,VALID,99.1496,VALID,-0.0339617,VALID,18.5716,VALID,43,VALID,0.960379,
2004-02-23, 03:20:00,VALID,916.676,VALID,0,VALID,99.2157,VALID,-0.0169808,VALID,18.5614,VALID,62,VALID,0.9893,
2004-02-23, 03:21:00,VALID,916.668,VALID,0,VALID,99.3021,VALID,-0.0169808,VALID,18.5646,VALID,78,VALID,1.04632,
2004-02-23, 03:22:00,VALID,916.656,VALID,0,VALID,99.3823,VALID,-0.0169808,VALID,18.5745,VALID,90,VALID,1.1399,
2004-02-23, 03:23:00,VALID,916.655,VALID,0,VALID,99.4191,VALID,0.0169808,VALID,18.5967,VALID,90,VALID,1.19158,
2004-02-23, 03:24:00,VALID,916.659,VALID,0,VALID,99.2882,VALID,0,VALID,18.6357,VALID,90,VALID,0.790551,
2004-02-23, 03:25:00,VALID,916.643,VALID,0,VALID,99.1775,VALID,0,VALID,18.6486,VALID,107,VALID,0.906795,
2004-02-23, 03:26:00,VALID,916.643,VALID,0,VALID,99.0733,VALID,0.0169808,VALID,18.6647,VALID,95,VALID,0.859375,
2004-02-23, 03:27:00,VALID,916.638,VALID,0,VALID,98.9575,VALID,0,VALID,18.6516,VALID,108,VALID,0.959722,
2004-02-23, 03:28:00,VALID,916.626,VALID,0,VALID,98.9118,VALID,-0.0169808,VALID,18.6488,VALID,116,VALID,0.820845,
2004-02-23, 03:29:00,VALID,916.614,VALID,0,VALID,98.9105,VALID,-0.0169808,VALID,18.6391,VALID,118,VALID,1.13988,
2004-02-23, 03:30:00,VALID,916.61,VALID,0,VALID,98.9461,VALID,-0.101885,VALID,18.647,VALID,104,VALID,0.93314,
2004-02-23, 03:31:00,VALID,916.605,VALID,0,VALID,98.9652,VALID,-0.118866,VALID,18.6331,VALID,107,VALID,0.946837,
2004-02-23, 03:32:00,VALID,916.597,VALID,0,VALID,99.0224,VALID,-0.118866,VALID,18.6373,VALID,96,VALID,0.94494,
2004-02-23, 03:33:00,VALID,916.588,VALID,0,VALID,99.0961,VALID,-0.101885,VALID,18.6373,VALID,98,VALID,0.915879,
2004-02-23, 03:34:00,VALID,916.595,VALID,0,VALID,99.1267,VALID,-0.101885,VALID,18.6371,VALID,105,VALID,1.12046,